Hebei Shijiazhuang — VRIS2 — position and weather

sailwx.info

Track history (hours):
 
Tides and Currents Weather Stations Pressure Air Temp Water Temp Dewpoint Dewpoint Depression Visibility Wind Speed Wind Dir Waves Ship Positions

Hebei Shijiazhuang

Last reported at 2014-Aug-02 14:33 UTC. Time now 2014-Aug-22 05:58 UTC.
Position S 08°46' E 115°42'.
Warning: this ship's position is 19 days out of date.

Length 235 m; draft 7.6 m.

Type: Cargo ship. MMSI: 477899600.

Date/timePositionNaut miles runAvg speedWind from/ knotsBaromVisibWave heightAir tempDewpointWater temp
2014-Aug-02 14:33S 08°46' E 115°42'  
2014-Jul-27 14:23N 22°21' E 119°56'1112.6
2014-Jul-27 13:33N 22°32' E 119°56'1312.9
2014-Jul-27 12:33N 22°44' E 119°56'42012.2
2014-Jul-26 02:03N 29°13' E 122°52'711.3
2014-Jul-26 01:24N 29°20' E 122°54'2411.2
2014-Jul-25 23:16N 29°43' E 123°03'911.4
2014-Jul-25 22:32N 29°51' E 123°06'1211.9
2014-Jul-25 21:30N 30°03' E 123°07'1612.1
2014-Jul-25 20:10N 30°19' E 123°05'812.3
2014-Jul-25 19:33N 30°27' E 123°03'1312.6
2014-Jul-25 18:33N 30°39' E 122°58'1313.2
2014-Jul-25 17:33N 30°51' E 122°52'1413.9
2014-Jul-25 16:34N 30°57' E 122°38'1212.1
2014-Jul-25 15:33N 31°01' E 122°24'1010.4
2014-Jul-25 14:33N 31°03' E 122°12'9 9.4
2014-Jul-25 13:33N 31°05' E 122°02'10 9.2
2014-Jul-25 12:29N 31°10' E 121°52'1112.1
2014-Jul-25 11:33N 31°18' E 121°43'1111.3
2014-Jul-25 10:34N 31°24' E 121°32'1010.2
2014-Jul-25 09:33N 31°31' E 121°23'7 3.4
2014-Jul-25 07:31N 31°37' E 121°18'0 0.0
2014-Jul-25 06:26N 31°37' E 121°18'0 0.1
2014-Jul-25 05:34N 31°37' E 121°18'5 5.4
2014-Jul-25 04:33N 31°40' E 121°12'1313.3
2014-Jul-25 03:33N 31°47' E 120°59'1313.1
2014-Jul-25 02:34N 31°58' E 120°51'1313.4
2014-Jul-25 01:33N 32°01' E 120°36'1111.0
2014-Jul-25 00:33N 32°01' E 120°23'1312.7
2014-Jul-24 23:34N 31°56' E 120°09'0 0.2
2014-Jul-24 22:31N 31°56' E 120°09'0 0.0
2014-Jul-24 21:31N 31°56' E 120°09'0 0.0
2014-Jul-24 20:31N 31°56' E 120°09'0 0.0
2014-Jul-24 19:28N 31°56' E 120°09'0 0.0
2014-Jul-24 18:31N 31°56' E 120°09'0 0.0
2014-Jul-24 17:31N 31°56' E 120°09'0 0.0
2014-Jul-24 16:31N 31°56' E 120°09'0 0.0
2014-Jul-24 15:31N 31°56' E 120°09'0 0.0
2014-Jul-24 14:31N 31°56' E 120°09'0 0.0
2014-Jul-24 13:31N 31°56' E 120°09'0 0.0
2014-Jul-24 12:31N 31°56' E 120°09'0 0.0
2014-Jul-24 11:22N 31°56' E 120°09'0 0.0
2014-Jul-24 10:31N 31°56' E 120°09'0 0.0
2014-Jul-24 09:31N 31°56' E 120°09'0 0.0
2014-Jul-24 08:31N 31°56' E 120°09'0 0.0
2014-Jul-24 07:31N 31°56' E 120°09'0 0.0
2014-Jul-24 06:31N 31°56' E 120°09'0 0.0
2014-Jul-24 05:31N 31°56' E 120°09'0 0.0
2014-Jul-24 04:31N 31°56' E 120°09'0 0.0
2014-Jul-24 03:31N 31°56' E 120°09'0 0.0
2014-Jul-24 02:31N 31°56' E 120°09'0 0.0
2014-Jul-24 01:31N 31°56' E 120°09'0 0.0
2014-Jul-24 00:31N 31°56' E 120°09'0 0.0
2014-Jul-23 23:31N 31°56' E 120°09'0 0.0
2014-Jul-23 22:31N 31°56' E 120°09'0 0.0
2014-Jul-23 21:31N 31°56' E 120°09'0 0.0
2014-Jul-23 20:31N 31°56' E 120°09'0 0.0
2014-Jul-23 19:28N 31°56' E 120°09'0 0.0
2014-Jul-23 18:31N 31°56' E 120°09'0 0.0
2014-Jul-23 17:31N 31°56' E 120°09'0 0.0
2014-Jul-23 16:31N 31°56' E 120°09'0 0.0
2014-Jul-23 15:31N 31°56' E 120°09'  
Track history (hours):
 
Tides and Currents Weather Stations Pressure Air Temp Water Temp Dewpoint Dewpoint Depression Visibility Wind Speed Wind Dir Waves Ship Positions

Hebei Shijiazhuang

Last reported at 2014-Aug-02 14:33 UTC. Time now 2014-Aug-22 05:58 UTC.
Position S 08°46' E 115°42'.
Warning: this ship's position is 19 days out of date.

Length 235 m; draft 7.6 m.

Type: Cargo ship. MMSI: 477899600.

Date/timePositionNaut miles runAvg speedWind from/ knotsBaromVisibWave heightAir tempDewpointWater temp
2014-Aug-02 14:33S 08°46' E 115°42'  
2014-Jul-27 14:23N 22°21' E 119°56'1112.6
2014-Jul-27 13:33N 22°32' E 119°56'1312.9
2014-Jul-27 12:33N 22°44' E 119°56'42012.2
2014-Jul-26 02:03N 29°13' E 122°52'711.3
2014-Jul-26 01:24N 29°20' E 122°54'2411.2
2014-Jul-25 23:16N 29°43' E 123°03'911.4
2014-Jul-25 22:32N 29°51' E 123°06'1211.9
2014-Jul-25 21:30N 30°03' E 123°07'1612.1
2014-Jul-25 20:10N 30°19' E 123°05'812.3
2014-Jul-25 19:33N 30°27' E 123°03'1312.6
2014-Jul-25 18:33N 30°39' E 122°58'1313.2
2014-Jul-25 17:33N 30°51' E 122°52'1413.9
2014-Jul-25 16:34N 30°57' E 122°38'1212.1
2014-Jul-25 15:33N 31°01' E 122°24'1010.4
2014-Jul-25 14:33N 31°03' E 122°12'9 9.4
2014-Jul-25 13:33N 31°05' E 122°02'10 9.2
2014-Jul-25 12:29N 31°10' E 121°52'1112.1
2014-Jul-25 11:33N 31°18' E 121°43'1111.3
2014-Jul-25 10:34N 31°24' E 121°32'1010.2
2014-Jul-25 09:33N 31°31' E 121°23'7 3.4
2014-Jul-25 07:31N 31°37' E 121°18'0 0.0
2014-Jul-25 06:26N 31°37' E 121°18'0 0.1
2014-Jul-25 05:34N 31°37' E 121°18'5 5.4
2014-Jul-25 04:33N 31°40' E 121°12'1313.3
2014-Jul-25 03:33N 31°47' E 120°59'1313.1
2014-Jul-25 02:34N 31°58' E 120°51'1313.4
2014-Jul-25 01:33N 32°01' E 120°36'1111.0
2014-Jul-25 00:33N 32°01' E 120°23'1312.7
2014-Jul-24 23:34N 31°56' E 120°09'0 0.2
2014-Jul-24 22:31N 31°56' E 120°09'0 0.0
2014-Jul-24 21:31N 31°56' E 120°09'0 0.0
2014-Jul-24 20:31N 31°56' E 120°09'0 0.0
2014-Jul-24 19:28N 31°56' E 120°09'0 0.0
2014-Jul-24 18:31N 31°56' E 120°09'0 0.0
2014-Jul-24 17:31N 31°56' E 120°09'0 0.0
2014-Jul-24 16:31N 31°56' E 120°09'0 0.0
2014-Jul-24 15:31N 31°56' E 120°09'0 0.0
2014-Jul-24 14:31N 31°56' E 120°09'0 0.0
2014-Jul-24 13:31N 31°56' E 120°09'0 0.0
2014-Jul-24 12:31N 31°56' E 120°09'0 0.0
2014-Jul-24 11:22N 31°56' E 120°09'0 0.0
2014-Jul-24 10:31N 31°56' E 120°09'0 0.0
2014-Jul-24 09:31N 31°56' E 120°09'0 0.0
2014-Jul-24 08:31N 31°56' E 120°09'0 0.0
2014-Jul-24 07:31N 31°56' E 120°09'0 0.0
2014-Jul-24 06:31N 31°56' E 120°09'0 0.0
2014-Jul-24 05:31N 31°56' E 120°09'0 0.0
2014-Jul-24 04:31N 31°56' E 120°09'0 0.0
2014-Jul-24 03:31N 31°56' E 120°09'0 0.0
2014-Jul-24 02:31N 31°56' E 120°09'0 0.0
2014-Jul-24 01:31N 31°56' E 120°09'0 0.0
2014-Jul-24 00:31N 31°56' E 120°09'0 0.0
2014-Jul-23 23:31N 31°56' E 120°09'0 0.0
2014-Jul-23 22:31N 31°56' E 120°09'0 0.0
2014-Jul-23 21:31N 31°56' E 120°09'0 0.0
2014-Jul-23 20:31N 31°56' E 120°09'0 0.0
2014-Jul-23 19:28N 31°56' E 120°09'0 0.0
2014-Jul-23 18:31N 31°56' E 120°09'0 0.0
2014-Jul-23 17:31N 31°56' E 120°09'0 0.0
2014-Jul-23 16:31N 31°56' E 120°09'0 0.0
2014-Jul-23 15:31N 31°56' E 120°09'  

Dump ship's entire track history